Location: Caltech
(34.1382°N, 118.1253°W)
Time: 10:04:31
(UTC-08:00)

Cosmos 1975 - Visible Passes

Search period start: 08 December 2016 00:00
Search period end: 18 December 2016 00:00
Orbit: 545 x 564 km, 82.5° (Epoch: 08 December)

Date Brightness Start Highest point End Pass type
(mag) Time Alt. Az. Time Alt. Az. Time Alt. Az.
08 Dec 5.1 18:12:51 10° NNW 18:16:15 26° W 18:19:37 10° SSW visible
09 Dec 5.4 18:10:08 10° NW 18:13:20 23° W 18:16:31 10° SW visible
10 Dec 6.3 04:53:12 10° E 04:54:12 11° E 04:55:11 10° ENE visible
10 Dec 5.6 18:07:27 10° NW 18:10:26 20° W 18:13:23 10° SW visible
11 Dec 6.1 04:49:31 10° ESE 04:51:16 12° E 04:53:01 10° ENE visible
11 Dec 5.9 18:04:49 10° NW 18:07:31 17° W 18:10:11 10° SW visible
12 Dec 6.0 04:46:07 10° ESE 04:48:21 14° E 04:50:35 10° NE visible
12 Dec 3.6 06:20:52 10° SW 06:24:31 31° W 06:28:12 10° NNW visible
12 Dec 5.9 18:02:13 10° NW 18:04:35 15° W 18:06:56 10° WSW visible
13 Dec 5.8 04:42:49 10° SE 04:45:25 17° E 04:48:02 10° NE visible
13 Dec 3.8 06:18:09 10° SW 06:21:40 27° WNW 06:25:12 10° NNW visible
13 Dec 6.0 17:59:44 10° WNW 18:01:40 13° W 18:03:34 10° WSW visible
14 Dec 5.6 04:39:36 10° SE 04:42:30 19° E 04:45:25 10° NE visible
14 Dec 4.0 06:15:28 10° SW 06:18:48 24° WNW 06:22:10 10° NNW visible
14 Dec 6.2 17:57:26 10° WNW 17:58:43 11° W 18:00:00 10° WSW visible
15 Dec 5.4 04:36:27 10° SE 04:39:35 22° E 04:42:44 10° NE visible
15 Dec 4.1 06:12:50 10° SW 06:15:57 21° WNW 06:19:06 10° NNW visible
16 Dec 5.1 04:33:19 10° SE 04:36:40 25° E 04:40:01 10° NE visible
16 Dec 4.3 06:10:13 10° WSW 06:13:06 18° WNW 06:16:00 10° NNW visible
17 Dec 4.8 04:30:14 10° SSE 04:33:45 28° E 04:37:16 10° NNE visible
17 Dec 4.4 06:07:40 10° WSW 06:10:15 16° WNW 06:12:51 10° NW visible
